KC7YCE Weather Reports


time (UTC)temp
C
wind
direction
speed
KPH
gust
KPH
rain 1hr
cm
rain 24hr
cm
rain mn
cm
humidity
%
barometer
mb
20260505003651 11 253 0.0 4.8 0.00 0.00 0.00 46 1015.3
20260505002621 11 231 0.0 4.8 0.00 0.00 0.00 44 1015.4
20260505001620 11 205 0.0 4.8 0.00 0.00 0.00 44 1015.3
20260505000621 11 258 1.6 4.8 0.00 0.00 0.00 41 1015.3
20260504235620 11 263 0.0 1.6 0.00 0.00 0.00 41 1015.3
20260504234620 11 143 1.6 6.4 0.00 0.00 0.00 39 1015.3
20260504232622 12 143 0.0 1.6 0.00 0.00 0.00 41 1015.3
20260504231552 12 155 1.6 6.4 0.00 0.00 0.00 40 1015.2
20260504224421 13 161 1.6 11.3 0.00 0.00 0.00 38 1015.2
20260504223422 13 161 0.0 11.3 0.00 0.00 0.00 40 1015.3
20260504221420 12 148 3.2 9.7 0.00 0.00 0.00 41 1015.5
20260504214250 12 161 0.0 11.3 0.00 0.00 0.00 42 1015.9
20260504213250 12 167 1.6 11.3 0.00 0.00 0.00 40 1016.1
20260504211150 15 326 0.0 4.8 0.00 0.00 0.00 31 1015.8
20260504205120 15 312 4.8 6.4 0.00 0.00 0.00 31 1015.9
20260504204121 13 301 1.6 4.8 0.00 0.00 0.00 34 1015.8
20260504203120 13 266 1.6 4.8 0.00 0.00 0.00 33 1015.8
20260504192049 13 28 0.0 6.4 0.00 0.00 0.00 28 1016.1
20260504183049 12 127 0.0 1.6 0.00 0.00 0.00 30 1016.6
20260504175050 12 121 0.0 4.8 0.00 0.00 0.00 35 1017.0
20260504171018 14 248 0.0 4.8 0.00 0.00 0.00 33 1017.3
20260504150948 11 97 1.6 3.2 0.00 0.00 0.00 35 1017.9
20260504140947 6 135 0.0 0.0 0.00 0.00 0.00 51 1018.3
20260504081546 0 146 1.6 1.6 0.00 0.00 0.00 65 1018.6
20260504050245 2 150 0.0 3.2 0.00 0.00 0.00 58 1019.3
20260504045245 2 158 0.0 1.6 0.00 0.00 0.00 57 1019.2
20260504044245 3 158 0.0 1.6 0.00 0.00 0.00 55 1019.3
20260504043215 3 158 0.0 1.6 0.00 0.00 0.00 52 1019.3
20260504042215 4 137 0.0 3.2 0.00 0.00 0.00 52 1019.3
20260504041215 4 138 0.0 3.2 0.00 0.00 0.00 51 1019.2
20260504040215 4 137 0.0 3.2 0.00 0.00 0.00 51 1019.2
20260504035216 4 165 0.0 0.0 0.00 0.00 0.00 51 1019.3
20260504034215 4 276 0.0 0.0 0.00 0.00 0.00 49 1019.2
20260504032144 5 276 0.0 0.0 0.00 0.00 0.00 46 1019.0
20260504031146 6 277 0.0 0.0 0.00 0.00 0.00 44 1019.0
20260504030144 6 277 0.0 0.0 0.00 0.00 0.00 41 1018.9
20260504024114 7 277 0.0 0.0 0.00 0.00 0.00 38 1018.8
20260504023114 8 276 0.0 0.0 0.00 0.00 0.00 35 1018.8
20260504021114 10 277 0.0 0.0 0.00 0.00 0.00 30 1018.7
20260504020044 11 277 0.0 0.0 0.00 0.00 0.00 29 1018.6
20260504015045 11 277 0.0 1.6 0.00 0.00 0.00 26 1018.6
20260504014044 12 276 0.0 1.6 0.00 0.00 0.00 26 1018.6
20260504013044 12 277 0.0 1.6 0.00 0.00 0.00 26 1018.6
20260504012049 12 278 0.0 3.2 0.00 0.00 0.00 24 1018.7
20260504011045 13 276 0.0 3.2 0.00 0.00 0.00 25 1018.7
20260504010043 13 252 0.0 3.2 0.00 0.00 0.00 23 1018.7